SL-8 DEB, 21173

Orbit data source: Space-Track

SL-8 DEB, 21173 is space debris in LEO originally from a launch on Tue, 12 Feb 1991 UTC launched from the Plesetsk Missile And Space Complex (PKMTR). Debris objects in space refer to the collection of defunct objects orbiting the Earth. Examples of debris include non-operational satellites, rocket bodies, and fragments generated from explosions, collisions, or faulty payload assembly.

Loading next visibility...
Identifier
21173, 1991-009AL
Orbit
LEO
Country
Flag of CISCIS
Related business
Manufacturer
Unknown
Mission
Spacecraft
Bus & Motor
Unknown
Mass
Unknown
Launch date (UTC)
1991-02-12 (35 years ago)
Launch vehicle
Unknown
Launch site
Plesetsk Missile And Space Complex (PKMTR)
Object type
Payload
Rocket body
Debris
Shape & HBR
Unknown shape, 0.2 m
Radar Cross Section
Medium (>0.1 m² and <1 m²)

Expand to show TLE details & history
Last TLE update: 2 days ago

TLE from 2 days ago
0 SL-8 DEB
1 21173U 91009AL  26171.40810571  .00000027  00000-0  39027-3 0  9999
2 21173  74.1114 276.8650 0136303 214.7091 218.6787 12.19283401570864
Epoch: 2026-06-20T09:47Z
TLE epoch observation values (Epoch: 2026-06-20T09:47:40.333Z)
Latitude
66.56216°
Longitude
-97.87448°
Altitude
1,692.244 km
Speed
6.997 km/s
True Right ascension
21h 10m 40s
True Declination
66° 27' 04"
Sunlit
Object was in daylight at epoch
Visualization orbit readout
Latitude
Unknown
Longitude
Unknown
Altitude
Unknown
Speed
Unknown
Apparent Right ascension
Unknown
Apparent Declination
Unknown
Sunlit
N/A
Visualization observer readout
Local Sidereal Time
00:50:08
Azimuth
Unknown
Elevation
Unknown
Doppler factor
Unknown
Orbital elements
Apogee altitude
1,702.184 km
Perigee altitude
1,484.872 km
Semi-major axis
7,971.665 km
Eccentricity
0.01363
Inclination
74.1114°
RAAN
276.865°
Arg. of periapsis
214.7091°
True anomaly
217.71544°
Mean anomaly
218.6787°
Eccentric anomaly
218.19579°
Mean motion
3.04944 °/min
Orbital period
118.05 mins
BSTAR
0.00039027
Loading maneuver chart data...
Computing Atmospheric mass density...
Loading historical data...
Loading historical data...
Loading historical data...
Loading historical data...
Loading historical data...
Loading historical data...
Loading historical data...

Documentation

Showing up to 5 results
|